Year,Month,Day,Hour,Minute,Value (Times are PST for temperature in C)
2010,06,12,00,00,9.40
2010,06,12,00,01,9.30
2010,06,12,00,02,9.30
2010,06,12,00,03,9.30
2010,06,12,00,04,9.30
2010,06,12,00,05,9.20
2010,06,12,00,06,9.20
2010,06,12,00,07,9.20
2010,06,12,00,08,9.20
2010,06,12,00,09,9.20
2010,06,12,00,10,9.20
2010,06,12,00,11,9.20
2010,06,12,00,12,9.20
2010,06,12,00,13,9.20
2010,06,12,00,14,9.20
2010,06,12,00,15,9.20
2010,06,12,00,16,9.10
2010,06,12,00,17,9.10
2010,06,12,00,18,9.10
2010,06,12,00,19,9.10
2010,06,12,00,20,9.10
2010,06,12,00,21,9.10
2010,06,12,00,22,9.10
2010,06,12,00,23,9.10
2010,06,12,00,24,9.10
2010,06,12,00,25,9.10
2010,06,12,00,26,9.00
2010,06,12,00,27,9.00
2010,06,12,00,28,9.00
2010,06,12,00,29,9.00
2010,06,12,00,30,9.00
2010,06,12,00,31,8.90
2010,06,12,00,32,8.90
2010,06,12,00,33,8.90
2010,06,12,00,34,8.90
2010,06,12,00,35,8.90
2010,06,12,00,36,8.90
2010,06,12,00,37,8.90
2010,06,12,00,38,8.90
2010,06,12,00,39,8.90
2010,06,12,00,40,8.90
2010,06,12,00,41,8.90
2010,06,12,00,42,8.80
2010,06,12,00,43,8.80
2010,06,12,00,44,8.80
2010,06,12,00,45,8.80
2010,06,12,00,46,8.80
2010,06,12,00,47,8.80
2010,06,12,00,48,8.80
2010,06,12,00,49,8.80
2010,06,12,00,50,8.80
2010,06,12,00,51,8.80
2010,06,12,00,52,8.80
2010,06,12,00,53,8.80
2010,06,12,00,54,8.80
2010,06,12,00,55,8.80
2010,06,12,00,56,8.80
2010,06,12,00,57,8.70
2010,06,12,00,58,8.70
2010,06,12,00,59,8.70
2010,06,12,01,00,8.70
2010,06,12,01,01,8.70
2010,06,12,01,02,8.70
2010,06,12,01,03,8.70
2010,06,12,01,04,8.70
2010,06,12,01,05,8.70
2010,06,12,01,06,8.70
2010,06,12,01,07,8.70
2010,06,12,01,08,8.70
2010,06,12,01,09,8.60
2010,06,12,01,10,8.60
2010,06,12,01,11,8.60
2010,06,12,01,12,8.60
2010,06,12,01,13,8.60
2010,06,12,01,14,8.60
2010,06,12,01,15,8.60
2010,06,12,01,16,8.60
2010,06,12,01,17,8.60
2010,06,12,01,18,8.60
2010,06,12,01,19,8.60
2010,06,12,01,20,8.60
2010,06,12,01,21,8.60
2010,06,12,01,22,8.60
2010,06,12,01,23,8.60
2010,06,12,01,24,8.60
2010,06,12,01,25,8.60
2010,06,12,01,26,8.60
2010,06,12,01,27,8.60
2010,06,12,01,28,8.60
2010,06,12,01,29,8.50
2010,06,12,01,30,8.50
2010,06,12,01,31,8.50
2010,06,12,01,32,8.50
2010,06,12,01,33,8.40
2010,06,12,01,34,8.50
2010,06,12,01,35,8.50
2010,06,12,01,36,8.60
2010,06,12,01,37,8.60
2010,06,12,01,38,8.70
2010,06,12,01,39,8.70
2010,06,12,01,40,8.70
2010,06,12,01,41,8.70
2010,06,12,01,42,8.70
2010,06,12,01,43,8.60
2010,06,12,01,44,8.60
2010,06,12,01,45,8.60
2010,06,12,01,46,8.60
2010,06,12,01,47,8.60
2010,06,12,01,48,8.50
2010,06,12,01,49,8.50
2010,06,12,01,50,8.50
2010,06,12,01,51,8.50
2010,06,12,01,52,8.50
2010,06,12,01,53,8.50
2010,06,12,01,54,8.40
2010,06,12,01,55,8.40
2010,06,12,01,56,8.40
2010,06,12,01,57,8.40
2010,06,12,01,58,8.40
2010,06,12,01,59,8.40
2010,06,12,02,00,8.40
2010,06,12,02,01,8.30
2010,06,12,02,02,8.30
2010,06,12,02,03,8.30
2010,06,12,02,04,8.30
2010,06,12,02,05,8.30
2010,06,12,02,06,8.40
2010,06,12,02,07,8.40
2010,06,12,02,08,8.40
2010,06,12,02,09,8.40
2010,06,12,02,10,8.30
2010,06,12,02,11,8.30
2010,06,12,02,12,8.30
2010,06,12,02,13,8.30
2010,06,12,02,14,8.30
2010,06,12,02,15,8.30
2010,06,12,02,16,8.20
2010,06,12,02,17,8.20
2010,06,12,02,18,8.20
2010,06,12,02,19,8.20
2010,06,12,02,20,8.20
2010,06,12,02,21,8.20
2010,06,12,02,22,8.20
2010,06,12,02,23,8.20
2010,06,12,02,24,8.20
2010,06,12,02,25,8.20
2010,06,12,02,26,8.20
2010,06,12,02,27,8.20
2010,06,12,02,28,8.20
2010,06,12,02,29,8.10
2010,06,12,02,30,8.10
2010,06,12,02,31,8.10
2010,06,12,02,32,8.10
2010,06,12,02,33,8.10
2010,06,12,02,34,8.10
2010,06,12,02,35,8.10
2010,06,12,02,36,8.10
2010,06,12,02,37,8.10
2010,06,12,02,38,8.10
2010,06,12,02,39,8.10
2010,06,12,02,40,8.10
2010,06,12,02,41,8.10
2010,06,12,02,42,8.10
2010,06,12,02,43,8.10
2010,06,12,02,44,8.10
2010,06,12,02,45,8.10
2010,06,12,02,46,8.10
2010,06,12,02,47,8.00
2010,06,12,02,48,8.00
2010,06,12,02,49,8.00
2010,06,12,02,50,8.00
2010,06,12,02,51,8.00
2010,06,12,02,52,8.00
2010,06,12,02,53,8.00
2010,06,12,02,54,8.00
2010,06,12,02,55,8.00
2010,06,12,02,56,8.00
2010,06,12,02,57,8.00
2010,06,12,02,58,8.00
2010,06,12,02,59,8.00
2010,06,12,03,00,8.00
2010,06,12,03,01,8.00
2010,06,12,03,02,7.90
2010,06,12,03,03,7.90
2010,06,12,03,04,7.90
2010,06,12,03,05,7.90
2010,06,12,03,06,7.90
2010,06,12,03,07,7.80
2010,06,12,03,08,7.80
2010,06,12,03,09,7.80
2010,06,12,03,10,7.80
2010,06,12,03,11,7.80
2010,06,12,03,12,7.80
2010,06,12,03,13,7.80
2010,06,12,03,14,7.80
2010,06,12,03,15,7.80
2010,06,12,03,16,7.80
2010,06,12,03,17,7.80
2010,06,12,03,18,7.70
2010,06,12,03,19,7.70
2010,06,12,03,20,7.70
2010,06,12,03,21,7.70
2010,06,12,03,22,7.70
2010,06,12,03,23,7.70
2010,06,12,03,24,7.70
2010,06,12,03,25,7.70
2010,06,12,03,26,7.70
2010,06,12,03,27,7.70
2010,06,12,03,28,7.70
2010,06,12,03,29,7.70
2010,06,12,03,30,7.70
2010,06,12,03,31,7.70
2010,06,12,03,32,7.60
2010,06,12,03,33,7.60
2010,06,12,03,34,7.60
2010,06,12,03,35,7.60
2010,06,12,03,36,7.60
2010,06,12,03,37,7.60
2010,06,12,03,38,7.50
2010,06,12,03,39,7.50
2010,06,12,03,40,7.50
2010,06,12,03,41,7.50
2010,06,12,03,42,7.50
2010,06,12,03,43,7.50
2010,06,12,03,44,7.60
2010,06,12,03,45,7.60
2010,06,12,03,46,7.50
2010,06,12,03,47,7.50
2010,06,12,03,48,7.50
2010,06,12,03,49,7.50
2010,06,12,03,50,7.50
2010,06,12,03,51,7.40
2010,06,12,03,52,7.40
2010,06,12,03,53,7.40
2010,06,12,03,54,7.40
2010,06,12,03,55,7.30
2010,06,12,03,56,7.30
2010,06,12,03,57,7.30
2010,06,12,03,58,7.30
2010,06,12,03,59,7.30
2010,06,12,04,00,7.30
2010,06,12,04,01,7.30
2010,06,12,04,02,7.30
2010,06,12,04,03,7.30
2010,06,12,04,04,7.30
2010,06,12,04,05,7.30
2010,06,12,04,06,7.30
2010,06,12,04,07,7.20
2010,06,12,04,08,7.20
2010,06,12,04,09,7.20
2010,06,12,04,10,7.20
2010,06,12,04,11,7.20
2010,06,12,04,12,7.20
2010,06,12,04,13,7.20
2010,06,12,04,14,7.20
2010,06,12,04,15,7.20
2010,06,12,04,16,7.20
2010,06,12,04,17,7.20
2010,06,12,04,18,7.20
2010,06,12,04,19,7.20
2010,06,12,04,20,7.20
2010,06,12,04,21,7.20
2010,06,12,04,22,7.20
2010,06,12,04,23,7.20
2010,06,12,04,24,7.20
2010,06,12,04,25,7.20
2010,06,12,04,26,7.20
2010,06,12,04,27,7.20
2010,06,12,04,28,7.20
2010,06,12,04,29,7.20
2010,06,12,04,30,7.10
2010,06,12,04,31,7.10
2010,06,12,04,32,7.10
2010,06,12,04,33,7.10
2010,06,12,04,34,7.10
2010,06,12,04,35,7.10
2010,06,12,04,36,7.00
2010,06,12,04,37,7.00
2010,06,12,04,38,7.00
2010,06,12,04,39,7.00
2010,06,12,04,40,7.00
2010,06,12,04,41,7.00
2010,06,12,04,42,7.00
2010,06,12,04,43,7.00
2010,06,12,04,44,7.00
2010,06,12,04,45,7.00
2010,06,12,04,46,7.00
2010,06,12,04,47,7.00
2010,06,12,04,48,7.00
2010,06,12,04,49,7.00
2010,06,12,04,50,6.90
2010,06,12,04,51,6.90
2010,06,12,04,52,6.90
2010,06,12,04,53,6.90
2010,06,12,04,54,6.90
2010,06,12,04,55,6.90
2010,06,12,04,56,6.90
2010,06,12,04,57,6.90
2010,06,12,04,58,6.90
2010,06,12,04,59,6.90
2010,06,12,05,00,6.90
2010,06,12,05,01,6.90
2010,06,12,05,02,6.90
2010,06,12,05,03,6.90
2010,06,12,05,04,6.90
2010,06,12,05,05,6.90
2010,06,12,05,06,6.90
2010,06,12,05,07,6.90
2010,06,12,05,08,6.90
2010,06,12,05,09,6.90
2010,06,12,05,10,6.90
2010,06,12,05,11,6.80
2010,06,12,05,12,6.80
2010,06,12,05,13,6.80
2010,06,12,05,14,6.80
2010,06,12,05,15,6.80
2010,06,12,05,16,6.80
2010,06,12,05,17,6.80
2010,06,12,05,18,6.80
2010,06,12,05,19,6.80
2010,06,12,05,20,6.80
2010,06,12,05,21,6.80
2010,06,12,05,22,6.80
2010,06,12,05,23,6.90
2010,06,12,05,24,6.90
2010,06,12,05,25,6.90
2010,06,12,05,26,6.90
2010,06,12,05,27,6.90
2010,06,12,05,28,6.90
2010,06,12,05,29,6.90
2010,06,12,05,30,6.90
2010,06,12,05,31,6.90
2010,06,12,05,32,6.90
2010,06,12,05,33,6.90
2010,06,12,05,34,6.90
2010,06,12,05,35,6.90
2010,06,12,05,36,6.90
2010,06,12,05,37,6.90
2010,06,12,05,38,6.80
2010,06,12,05,39,6.80
2010,06,12,05,40,6.80
2010,06,12,05,41,6.80
2010,06,12,05,42,6.80
2010,06,12,05,43,6.80
2010,06,12,05,44,6.80
2010,06,12,05,45,6.80
2010,06,12,05,46,6.80
2010,06,12,05,47,6.80
2010,06,12,05,48,6.80
2010,06,12,05,49,6.80
2010,06,12,05,50,6.80
2010,06,12,05,51,6.80
2010,06,12,05,52,6.80
2010,06,12,05,53,6.80
2010,06,12,05,54,6.80
2010,06,12,05,55,6.80
2010,06,12,05,56,6.80
2010,06,12,05,57,6.80
2010,06,12,05,58,6.80
2010,06,12,05,59,6.80
2010,06,12,06,00,6.80
2010,06,12,06,01,6.80
2010,06,12,06,02,6.80
2010,06,12,06,03,6.80
2010,06,12,06,04,6.80
2010,06,12,06,05,6.80
2010,06,12,06,06,6.80
2010,06,12,06,07,6.80
2010,06,12,06,08,6.80
2010,06,12,06,09,6.80
2010,06,12,06,10,6.80
2010,06,12,06,11,6.80
2010,06,12,06,12,6.80
2010,06,12,06,13,6.80
2010,06,12,06,14,6.80
2010,06,12,06,15,6.90
2010,06,12,06,16,6.90
2010,06,12,06,17,7.00
2010,06,12,06,18,7.00
2010,06,12,06,19,7.10
2010,06,12,06,20,7.10
2010,06,12,06,21,7.20
2010,06,12,06,22,7.30
2010,06,12,06,23,7.30
2010,06,12,06,24,7.50
2010,06,12,06,25,7.60
2010,06,12,06,26,7.70
2010,06,12,06,27,7.80
2010,06,12,06,28,7.90
2010,06,12,06,29,8.00
2010,06,12,06,30,8.10
2010,06,12,06,31,8.20
2010,06,12,06,32,8.20
2010,06,12,06,33,8.30
2010,06,12,06,34,8.30
2010,06,12,06,35,8.30
2010,06,12,06,36,8.40
2010,06,12,06,37,8.50
2010,06,12,06,38,8.60
2010,06,12,06,39,8.60
2010,06,12,06,40,8.70
2010,06,12,06,41,8.70
2010,06,12,06,42,8.70
2010,06,12,06,43,8.70
2010,06,12,06,44,8.70
2010,06,12,06,45,8.60
2010,06,12,06,46,8.60
2010,06,12,06,47,8.70
2010,06,12,06,48,8.70
2010,06,12,06,49,8.80
2010,06,12,06,50,8.90
2010,06,12,06,51,9.00
2010,06,12,06,52,9.10
2010,06,12,06,53,9.20
2010,06,12,06,54,9.20
2010,06,12,06,55,9.30
2010,06,12,06,56,9.40
2010,06,12,06,57,9.40
2010,06,12,06,58,9.50
2010,06,12,06,59,9.50
2010,06,12,07,00,9.50
2010,06,12,07,01,9.50
2010,06,12,07,02,9.60
2010,06,12,07,03,9.70
2010,06,12,07,04,9.70
2010,06,12,07,05,9.80
2010,06,12,07,06,9.90
2010,06,12,07,07,9.90
2010,06,12,07,08,9.90
2010,06,12,07,09,9.90
2010,06,12,07,10,9.90
2010,06,12,07,11,9.90
2010,06,12,07,12,10.00
2010,06,12,07,13,10.10
2010,06,12,07,14,10.10
2010,06,12,07,15,10.20
2010,06,12,07,16,10.30
2010,06,12,07,17,10.40
2010,06,12,07,18,10.50
2010,06,12,07,19,10.60
2010,06,12,07,20,10.70
2010,06,12,07,21,10.90
2010,06,12,07,22,10.90
2010,06,12,07,23,11.10
2010,06,12,07,24,11.10
2010,06,12,07,25,11.20
2010,06,12,07,26,11.20
2010,06,12,07,27,11.30
2010,06,12,07,28,11.30
2010,06,12,07,29,11.30
2010,06,12,07,30,11.30
2010,06,12,07,31,11.40
2010,06,12,07,32,11.40
2010,06,12,07,33,11.50
2010,06,12,07,34,11.60
2010,06,12,07,35,11.70
2010,06,12,07,36,11.80
2010,06,12,07,37,11.90
2010,06,12,07,38,12.00
2010,06,12,07,39,12.20
2010,06,12,07,40,12.30
2010,06,12,07,41,12.40
2010,06,12,07,42,12.50
2010,06,12,07,43,12.60
2010,06,12,07,44,12.70
2010,06,12,07,45,12.80
2010,06,12,07,46,12.90
2010,06,12,07,47,13.00
2010,06,12,07,48,13.10
2010,06,12,07,49,13.20
2010,06,12,07,50,13.20
2010,06,12,07,51,13.30
2010,06,12,07,52,13.40
2010,06,12,07,53,13.50
2010,06,12,07,54,13.50
2010,06,12,07,55,13.60
2010,06,12,07,56,13.70
2010,06,12,07,57,13.80
2010,06,12,07,58,13.90
2010,06,12,07,59,14.00
2010,06,12,08,00,14.00
2010,06,12,08,01,14.10
2010,06,12,08,02,14.20
2010,06,12,08,03,14.30
2010,06,12,08,04,14.40
2010,06,12,08,05,14.50
2010,06,12,08,06,14.60
2010,06,12,08,07,14.70
2010,06,12,08,08,14.80
2010,06,12,08,09,14.80
2010,06,12,08,10,14.90
2010,06,12,08,11,14.90
2010,06,12,08,12,15.00
2010,06,12,08,13,15.00
2010,06,12,08,14,15.10
2010,06,12,08,15,15.10
2010,06,12,08,16,15.20
2010,06,12,08,17,15.30
2010,06,12,08,18,15.30
2010,06,12,08,19,15.30
2010,06,12,08,20,15.40
2010,06,12,08,21,15.50
2010,06,12,08,22,15.60
2010,06,12,08,23,15.60
2010,06,12,08,24,15.70
2010,06,12,08,25,15.80
2010,06,12,08,26,15.80
2010,06,12,08,27,15.80
2010,06,12,08,28,15.90
2010,06,12,08,29,16.00
2010,06,12,08,30,16.10
2010,06,12,08,31,16.10
2010,06,12,08,32,16.20
2010,06,12,08,33,16.30
2010,06,12,08,34,16.30
2010,06,12,08,35,16.30
2010,06,12,08,36,16.30
2010,06,12,08,37,16.30
2010,06,12,08,38,16.40
2010,06,12,08,39,16.40
2010,06,12,08,40,16.40
2010,06,12,08,41,16.40
2010,06,12,08,42,16.40
2010,06,12,08,43,16.40
2010,06,12,08,44,16.40
2010,06,12,08,45,16.50
2010,06,12,08,46,16.60
2010,06,12,08,47,16.70
2010,06,12,08,48,16.70
2010,06,12,08,49,16.70
2010,06,12,08,50,16.70
2010,06,12,08,51,16.80
2010,06,12,08,52,16.90
2010,06,12,08,53,17.00
2010,06,12,08,54,17.10
2010,06,12,08,55,17.20
2010,06,12,08,56,17.30
2010,06,12,08,57,17.40
2010,06,12,08,58,17.50
2010,06,12,08,59,17.50
2010,06,12,09,00,17.50
2010,06,12,09,01,17.40
2010,06,12,09,02,17.30
2010,06,12,09,03,17.30
2010,06,12,09,04,17.20
2010,06,12,09,05,17.10
2010,06,12,09,06,17.10
2010,06,12,09,07,17.20
2010,06,12,09,08,17.20
2010,06,12,09,09,17.30
2010,06,12,09,10,17.40
2010,06,12,09,11,17.50
2010,06,12,09,12,17.60
2010,06,12,09,13,17.70
2010,06,12,09,14,17.80
2010,06,12,09,15,17.90
2010,06,12,09,16,18.00
2010,06,12,09,17,18.10
2010,06,12,09,18,18.30
2010,06,12,09,19,18.40
2010,06,12,09,20,18.50
2010,06,12,09,21,18.60
2010,06,12,09,22,18.70
2010,06,12,09,23,18.80
2010,06,12,09,24,18.80
2010,06,12,09,25,18.90
2010,06,12,09,26,18.90
2010,06,12,09,27,18.90
2010,06,12,09,28,18.90
2010,06,12,09,29,19.00
2010,06,12,09,30,19.10
2010,06,12,09,31,19.00
2010,06,12,09,32,18.90
2010,06,12,09,33,18.90
2010,06,12,09,34,18.80
2010,06,12,09,35,18.70
2010,06,12,09,36,18.70
2010,06,12,09,37,18.70
2010,06,12,09,38,18.80
2010,06,12,09,39,18.90
2010,06,12,09,40,18.90
2010,06,12,09,41,18.90
2010,06,12,09,42,18.90
2010,06,12,09,43,19.00
2010,06,12,09,44,19.10
2010,06,12,09,45,19.10
2010,06,12,09,46,19.10
2010,06,12,09,47,19.10
2010,06,12,09,48,19.20
2010,06,12,09,49,19.20
2010,06,12,09,50,19.30
2010,06,12,09,51,19.30
2010,06,12,09,52,19.40
2010,06,12,09,53,19.40
2010,06,12,09,54,19.30
2010,06,12,09,55,19.30
2010,06,12,09,56,19.20
2010,06,12,09,57,19.30
2010,06,12,09,58,19.20
2010,06,12,09,59,19.30
2010,06,12,10,00,19.30
2010,06,12,10,01,19.20
2010,06,12,10,02,19.00
2010,06,12,10,03,18.90
2010,06,12,10,04,18.90
2010,06,12,10,05,18.90
2010,06,12,10,06,18.90
2010,06,12,10,07,18.90
2010,06,12,10,08,19.00
2010,06,12,10,09,19.10
2010,06,12,10,10,19.10
2010,06,12,10,11,19.20
2010,06,12,10,12,19.30
2010,06,12,10,13,19.40
2010,06,12,10,14,19.40
2010,06,12,10,15,19.50
2010,06,12,10,16,19.60
2010,06,12,10,17,19.60
2010,06,12,10,18,19.60
2010,06,12,10,19,19.60
2010,06,12,10,20,19.50
2010,06,12,10,21,19.50
2010,06,12,10,22,19.50
2010,06,12,10,23,19.50
2010,06,12,10,24,19.50
2010,06,12,10,25,19.40
2010,06,12,10,26,19.40
2010,06,12,10,27,19.30
2010,06,12,10,28,19.30
2010,06,12,10,29,19.30
2010,06,12,10,30,19.30
2010,06,12,10,31,19.40
2010,06,12,10,32,19.20
2010,06,12,10,33,19.10
2010,06,12,10,34,19.10
2010,06,12,10,35,19.10
2010,06,12,10,36,19.10
2010,06,12,10,37,19.10
2010,06,12,10,38,19.10
2010,06,12,10,39,19.20
2010,06,12,10,40,19.20
2010,06,12,10,41,19.30
2010,06,12,10,42,19.40
2010,06,12,10,43,19.60
2010,06,12,10,44,19.60
2010,06,12,10,45,19.50
2010,06,12,10,46,19.50
2010,06,12,10,47,19.40
2010,06,12,10,48,19.30
2010,06,12,10,49,19.20
2010,06,12,10,50,19.20
2010,06,12,10,51,19.20
2010,06,12,10,52,19.10
2010,06,12,10,53,19.10
2010,06,12,10,54,19.10
2010,06,12,10,55,19.00
2010,06,12,10,56,19.00
2010,06,12,10,57,19.10
2010,06,12,10,58,19.10
2010,06,12,10,59,19.20
2010,06,12,11,00,19.30
2010,06,12,11,01,19.40
2010,06,12,11,02,19.60
2010,06,12,11,03,19.60
2010,06,12,11,04,19.70
2010,06,12,11,05,19.80
2010,06,12,11,06,19.70
2010,06,12,11,07,19.60
2010,06,12,11,08,19.60
2010,06,12,11,09,19.50
2010,06,12,11,10,19.60
2010,06,12,11,11,19.70
2010,06,12,11,12,19.70
2010,06,12,11,13,19.70
2010,06,12,11,14,19.80
2010,06,12,11,15,19.90
2010,06,12,11,16,19.90
2010,06,12,11,17,19.80
2010,06,12,11,18,19.60
2010,06,12,11,19,19.70
2010,06,12,11,20,19.70
2010,06,12,11,21,19.60
2010,06,12,11,22,19.50
2010,06,12,11,23,19.30
2010,06,12,11,24,19.20
2010,06,12,11,25,19.10
2010,06,12,11,26,19.20
2010,06,12,11,27,19.30
2010,06,12,11,28,19.40
2010,06,12,11,29,19.50
2010,06,12,11,30,19.60
2010,06,12,11,31,19.70
2010,06,12,11,32,19.80
2010,06,12,11,33,19.90
2010,06,12,11,34,20.00
2010,06,12,11,35,20.10
2010,06,12,11,36,20.10
2010,06,12,11,37,20.20
2010,06,12,11,38,20.40
2010,06,12,11,39,20.50
2010,06,12,11,40,20.70
2010,06,12,11,41,20.70
2010,06,12,11,42,20.70
2010,06,12,11,43,20.60
2010,06,12,11,44,20.50
2010,06,12,11,45,20.50
2010,06,12,11,46,20.50
2010,06,12,11,47,20.50
2010,06,12,11,48,20.50
2010,06,12,11,49,20.50
2010,06,12,11,50,20.40
2010,06,12,11,51,20.20
2010,06,12,11,52,20.20
2010,06,12,11,53,20.20
2010,06,12,11,54,20.10
2010,06,12,11,55,20.10
2010,06,12,11,56,20.10
2010,06,12,11,57,20.00
2010,06,12,11,58,19.90
2010,06,12,11,59,20.00
2010,06,12,12,00,20.10
2010,06,12,12,01,20.20
2010,06,12,12,02,20.20
2010,06,12,12,03,20.30
2010,06,12,12,04,20.30
2010,06,12,12,05,20.40
2010,06,12,12,06,20.40
2010,06,12,12,07,20.40
2010,06,12,12,08,20.40
2010,06,12,12,09,20.30
2010,06,12,12,10,20.30
2010,06,12,12,11,20.20
2010,06,12,12,12,20.20
2010,06,12,12,13,20.20
2010,06,12,12,14,20.20
2010,06,12,12,15,20.40
2010,06,12,12,16,20.50
2010,06,12,12,17,20.50
2010,06,12,12,18,20.60
2010,06,12,12,19,20.60
2010,06,12,12,20,20.60
2010,06,12,12,21,20.60
2010,06,12,12,22,20.60
2010,06,12,12,23,20.70
2010,06,12,12,24,20.70
2010,06,12,12,25,20.80
2010,06,12,12,26,20.70
2010,06,12,12,27,20.70
2010,06,12,12,28,20.60
2010,06,12,12,29,20.50
2010,06,12,12,30,20.40
2010,06,12,12,31,20.30
2010,06,12,12,32,20.30
2010,06,12,12,33,20.20
2010,06,12,12,34,20.20
2010,06,12,12,35,20.20
2010,06,12,12,36,20.30
2010,06,12,12,37,20.40
2010,06,12,12,38,20.50
2010,06,12,12,39,20.60
2010,06,12,12,40,20.60
2010,06,12,12,41,20.70
2010,06,12,12,42,20.80
2010,06,12,12,43,20.90
2010,06,12,12,44,21.00
2010,06,12,12,45,21.00
2010,06,12,12,46,21.00
2010,06,12,12,47,21.00
2010,06,12,12,48,21.00
2010,06,12,12,49,21.10
2010,06,12,12,50,21.10
2010,06,12,12,51,21.20
2010,06,12,12,52,21.10
2010,06,12,12,53,21.10
2010,06,12,12,54,21.10
2010,06,12,12,55,21.10
2010,06,12,12,56,21.10
2010,06,12,12,57,21.10
2010,06,12,12,58,21.10
2010,06,12,12,59,21.20
2010,06,12,13,00,21.20
2010,06,12,13,01,21.30
2010,06,12,13,02,21.30
2010,06,12,13,03,21.30
2010,06,12,13,04,21.30
2010,06,12,13,05,21.30
2010,06,12,13,06,21.20
2010,06,12,13,07,20.90
2010,06,12,13,08,20.80
2010,06,12,13,09,20.80
2010,06,12,13,10,20.70
2010,06,12,13,11,20.60
2010,06,12,13,12,20.50
2010,06,12,13,13,20.40
2010,06,12,13,14,20.30
2010,06,12,13,15,20.20
2010,06,12,13,16,20.10
2010,06,12,13,17,20.10
2010,06,12,13,18,20.20
2010,06,12,13,19,20.20
2010,06,12,13,20,20.20
2010,06,12,13,21,20.30
2010,06,12,13,22,20.30
2010,06,12,13,23,20.10
2010,06,12,13,24,19.90
2010,06,12,13,25,19.70
2010,06,12,13,26,19.50
2010,06,12,13,27,19.40
2010,06,12,13,28,19.40
2010,06,12,13,29,19.40
2010,06,12,13,30,19.30
2010,06,12,13,31,19.30
2010,06,12,13,32,19.30
2010,06,12,13,33,19.40
2010,06,12,13,34,19.40
2010,06,12,13,35,19.40
2010,06,12,13,36,19.50
2010,06,12,13,37,19.50
2010,06,12,13,38,19.60
2010,06,12,13,39,19.60
2010,06,12,13,40,19.60
2010,06,12,13,41,19.70
2010,06,12,13,42,19.70
2010,06,12,13,43,19.70
2010,06,12,13,44,19.70
2010,06,12,13,45,19.70
2010,06,12,13,46,19.80
2010,06,12,13,47,19.90
2010,06,12,13,48,20.00
2010,06,12,13,49,20.20
2010,06,12,13,50,20.20
2010,06,12,13,51,20.20
2010,06,12,13,52,20.20
2010,06,12,13,53,20.20
2010,06,12,13,54,20.10
2010,06,12,13,55,20.00
2010,06,12,13,56,19.90
2010,06,12,13,57,19.90
2010,06,12,13,58,19.90
2010,06,12,13,59,20.00
2010,06,12,14,00,20.20
2010,06,12,14,01,20.20
2010,06,12,14,02,20.40
2010,06,12,14,03,20.50
2010,06,12,14,04,20.60
2010,06,12,14,05,20.70
2010,06,12,14,06,20.80
2010,06,12,14,07,20.90
2010,06,12,14,08,20.90
2010,06,12,14,09,20.90
2010,06,12,14,10,20.80
2010,06,12,14,11,20.80
2010,06,12,14,12,20.70
2010,06,12,14,13,20.70
2010,06,12,14,14,20.70
2010,06,12,14,15,20.80
2010,06,12,14,16,20.80
2010,06,12,14,17,20.80
2010,06,12,14,18,20.80
2010,06,12,14,19,20.60
2010,06,12,14,20,20.60
2010,06,12,14,21,20.50
2010,06,12,14,22,20.40
2010,06,12,14,23,20.40
2010,06,12,14,24,20.40
2010,06,12,14,25,20.30
2010,06,12,14,26,20.30
2010,06,12,14,27,20.30
2010,06,12,14,28,20.40
2010,06,12,14,29,20.30
2010,06,12,14,30,20.30
2010,06,12,14,31,20.30
2010,06,12,14,32,20.30
2010,06,12,14,33,20.30
2010,06,12,14,34,20.40
2010,06,12,14,35,20.40
2010,06,12,14,36,20.50
2010,06,12,14,37,20.50
2010,06,12,14,38,20.50
2010,06,12,14,39,20.50
2010,06,12,14,40,20.50
2010,06,12,14,41,20.50
2010,06,12,14,42,20.50
2010,06,12,14,43,20.60
2010,06,12,14,44,20.60
2010,06,12,14,45,20.70
2010,06,12,14,46,20.70
2010,06,12,14,47,20.70
2010,06,12,14,48,20.70
2010,06,12,14,49,20.60
2010,06,12,14,50,20.50
2010,06,12,14,51,20.50
2010,06,12,14,52,20.50
2010,06,12,14,53,20.60
2010,06,12,14,54,20.60
2010,06,12,14,55,20.70
2010,06,12,14,56,20.80
2010,06,12,14,57,20.80
2010,06,12,14,58,20.80
2010,06,12,14,59,20.90
2010,06,12,15,00,20.90
2010,06,12,15,01,21.00
2010,06,12,15,02,21.00
2010,06,12,15,03,21.00
2010,06,12,15,04,21.00
2010,06,12,15,05,21.10
2010,06,12,15,06,21.10
2010,06,12,15,07,21.10
2010,06,12,15,08,21.30
2010,06,12,15,09,21.40
2010,06,12,15,10,21.40
2010,06,12,15,11,21.40
2010,06,12,15,12,21.20
2010,06,12,15,13,21.10
2010,06,12,15,14,21.10
2010,06,12,15,15,21.10
2010,06,12,15,16,21.20
2010,06,12,15,17,21.20
2010,06,12,15,18,21.20
2010,06,12,15,19,21.30
2010,06,12,15,20,21.40
2010,06,12,15,21,21.50
2010,06,12,15,22,21.60
2010,06,12,15,23,21.60
2010,06,12,15,24,21.60
2010,06,12,15,25,21.50
2010,06,12,15,26,21.20
2010,06,12,15,27,21.00
2010,06,12,15,28,20.90
2010,06,12,15,29,20.90
2010,06,12,15,30,20.80
2010,06,12,15,31,20.80
2010,06,12,15,32,20.90
2010,06,12,15,33,20.90
2010,06,12,15,34,21.00
2010,06,12,15,35,21.10
2010,06,12,15,36,21.20
2010,06,12,15,37,21.20
2010,06,12,15,38,21.30
2010,06,12,15,39,21.40
2010,06,12,15,40,21.60
2010,06,12,15,41,21.70
2010,06,12,15,42,21.80
2010,06,12,15,43,21.80
2010,06,12,15,44,21.70
2010,06,12,15,45,21.60
2010,06,12,15,46,21.50
2010,06,12,15,47,21.30
2010,06,12,15,48,21.30
2010,06,12,15,49,21.30
2010,06,12,15,50,21.30
2010,06,12,15,51,21.40
2010,06,12,15,52,21.40
2010,06,12,15,53,21.40
2010,06,12,15,54,21.40
2010,06,12,15,55,21.50
2010,06,12,15,56,21.60
2010,06,12,15,57,21.60
2010,06,12,15,58,21.60
2010,06,12,15,59,21.70
2010,06,12,16,00,21.70
2010,06,12,16,01,21.70
2010,06,12,16,02,21.70
2010,06,12,16,03,21.70
2010,06,12,16,04,21.80
2010,06,12,16,05,21.80
2010,06,12,16,06,21.80
2010,06,12,16,07,21.60
2010,06,12,16,08,21.60
2010,06,12,16,09,21.70
2010,06,12,16,10,21.70
2010,06,12,16,11,21.80
2010,06,12,16,12,21.80
2010,06,12,16,13,21.90
2010,06,12,16,14,22.00
2010,06,12,16,15,21.90
2010,06,12,16,16,21.80
2010,06,12,16,17,21.90
2010,06,12,16,18,22.00
2010,06,12,16,19,22.10
2010,06,12,16,20,22.20
2010,06,12,16,21,22.20
2010,06,12,16,22,22.20
2010,06,12,16,23,22.20
2010,06,12,16,24,22.00
2010,06,12,16,25,22.00
2010,06,12,16,26,21.90
2010,06,12,16,27,21.80
2010,06,12,16,28,21.80
2010,06,12,16,29,21.70
2010,06,12,16,30,21.60
2010,06,12,16,31,21.60
2010,06,12,16,32,21.60
2010,06,12,16,33,21.70
2010,06,12,16,34,21.70
2010,06,12,16,35,21.70
2010,06,12,16,36,21.60
2010,06,12,16,37,21.60
2010,06,12,16,38,21.60
2010,06,12,16,39,21.60
2010,06,12,16,40,21.50
2010,06,12,16,41,21.40
2010,06,12,16,42,21.40
2010,06,12,16,43,21.40
2010,06,12,16,44,21.40
2010,06,12,16,45,21.40
2010,06,12,16,46,21.40
2010,06,12,16,47,21.50
2010,06,12,16,48,21.60
2010,06,12,16,49,21.60
2010,06,12,16,50,21.60
2010,06,12,16,51,21.60
2010,06,12,16,52,21.60
2010,06,12,16,53,21.60
2010,06,12,16,54,21.60
2010,06,12,16,55,21.60
2010,06,12,16,56,21.40
2010,06,12,16,57,21.30
2010,06,12,16,58,21.30
2010,06,12,16,59,21.10
2010,06,12,17,00,21.10
2010,06,12,17,01,21.00
2010,06,12,17,02,21.00
2010,06,12,17,03,21.00
2010,06,12,17,04,21.10
2010,06,12,17,05,21.10
2010,06,12,17,06,21.30
2010,06,12,17,07,21.30
2010,06,12,17,08,21.30
2010,06,12,17,09,21.30
2010,06,12,17,10,21.30
2010,06,12,17,11,21.20
2010,06,12,17,12,21.20
2010,06,12,17,13,21.20
2010,06,12,17,14,21.20
2010,06,12,17,15,21.20
2010,06,12,17,16,21.30
2010,06,12,17,17,21.30
2010,06,12,17,18,21.40
2010,06,12,17,19,21.40
2010,06,12,17,20,21.40
2010,06,12,17,21,21.40
2010,06,12,17,22,21.40
2010,06,12,17,23,21.50
2010,06,12,17,24,21.60
2010,06,12,17,25,21.70
2010,06,12,17,26,21.70
2010,06,12,17,27,21.70
2010,06,12,17,28,21.80
2010,06,12,17,29,21.80
2010,06,12,17,30,21.80
2010,06,12,17,31,21.80
2010,06,12,17,32,21.80
2010,06,12,17,33,21.80
2010,06,12,17,34,21.80
2010,06,12,17,35,21.70
2010,06,12,17,36,21.70
2010,06,12,17,37,21.70
2010,06,12,17,38,21.70